GFSGL_850_spd_231.txt.gz
Wind_Speed
19 18 13 14 16 17 16 17 18 16 15 16 15 15 13 14 14 16 15 14 13 14 13 12 10 9 8 7 6 9 9 11 12 18 17 15 17 16 14 12 11 12 10
18 17 14 14 16 16 13 14 15 15 13 14 14 12 11 11 13 16 14 15 15 14 14 12 10 10 10 10 11 11 11 10 10 11 14 17 16 15 12 11 11 11 11
16 13 15 17 17 14 13 13 13 15 14 16 16 12 7 10 13 12 12 13 13 14 14 14 15 14 13 11 12 12 11 10 10 13 11 15 16 16 16 16 16 14 10
15 13 12 15 17 15 11 16 17 21 21 23 26 22 18 16 18 16 15 16 18 21 20 20 20 17 16 16 14 13 13 13 12 11 11 12 12 14 16 21 24 17 15
16 16 15 16 19 20 20 19 22 23 26 27 27 27 26 26 25 23 24 22 24 26 25 19 17 16 16 15 13 12 12 13 15 14 14 16 14 17 19 21 23 22 17
14 15 16 17 18 22 23 25 26 25 25 26 27 26 22 22 20 20 18 19 19 23 26 29 17 17 16 12 12 14 13 17 17 18 16 18 19 18 18 22 23 21 21
13 14 16 17 19 23 23 22 23 24 24 27 27 26 21 19 18 19 18 16 13 18 27 27 25 20 19 17 14 11 12 15 14 14 15 17 19 16 19 20 19 18 18
12 14 19 19 21 22 21 20 19 17 17 18 20 23 24 21 14 15 18 18 13 18 23 24 24 27 27 23 20 18 18 18 21 15 16 15 14 15 17 18 19 19 16
14 15 16 16 19 19 17 17 15 15 12 12 16 21 26 23 21 12 15 19 14 19 23 22 22 22 21 20 18 19 16 17 25 22 18 14 15 14 17 18 18 17 19
17 18 18 18 18 16 11 13 14 11 14 12 13 17 25 27 15 15 10 11 11 12 15 20 20 20 21 21 18 14 14 13 18 20 22 20 18 16 15 13 14 17 16
15 12 11 12 10 14 8 10 14 15 16 14 13 17 21 22 14 14 12 12 15 15 17 18 20 19 18 19 19 16 15 17 12 18 21 21 26 21 19 20 10 15 15
14 12 9 4 9 18 15 7 7 8 9 8 8 14 20 19 18 17 15 11 13 18 20 19 21 22 21 20 20 19 16 16 13 21 26 24 25 21 21 16 15 12 12
10 11 15 16 19 22 24 25 22 20 20 18 17 18 19 18 19 18 15 16 17 18 19 18 20 20 21 21 21 22 19 17 19 24 26 24 26 27 20 14 11 10 8
3 5 8 12 15 17 19 19 22 23 23 25 23 22 22 18 18 20 22 20 23 21 20 21 22 22 21 21 20 22 20 21 23 27 26 28 28 25 19 13 14 14 15
5 6 9 10 12 15 16 16 16 18 18 22 25 22 25 23 19 22 25 20 22 22 22 23 24 24 24 26 23 23 21 24 26 26 27 32 28 25 18 15 13 13 13
2 3 7 7 10 11 14 14 14 18 17 18 22 20 18 18 18 18 20 20 22 21 23 25 25 25 26 26 25 24 23 25 26 27 31 35 25 20 18 13 14 12 11
6 6 7 9 8 9 10 12 11 15 14 14 20 21 13 18 14 15 18 20 19 24 22 24 25 25 26 27 25 26 27 30 30 28 29 34 23 16 15 13 13 12 11
3 2 3 4 6 11 13 12 12 15 13 13 16 26 11 14 13 15 17 18 20 23 23 23 24 28 28 28 30 26 29 33 27 27 29 32 22 16 16 12 11 12 11
13 8 5 5 6 10 10 10 11 12 10 11 13 19 13 14 13 14 17 19 19 21 21 22 26 30 31 29 30 27 29 29 32 31 33 30 21 15 15 12 10 9 9
3 7 10 10 7 9 8 8 11 12 10 10 13 14 14 12 12 16 17 16 17 18 19 23 28 30 31 31 32 31 30 33 36 36 29 24 19 14 14 11 8 9 8
3 4 7 7 2 13 12 5 8 13 12 10 10 12 11 11 11 14 16 15 16 18 19 23 27 31 32 34 34 32 31 35 36 33 28 24 18 14 11 8 8 7 5
1 2 6 11 4 10 11 11 11 10 13 9 9 11 10 11 9 14 12 12 15 15 17 22 27 30 33 35 34 32 31 36 34 36 31 23 19 14 9 8 8 7 7
1 4 5 7 10 10 6 13 12 10 13 9 10 12 10 11 10 11 10 12 16 14 16 21 25 29 32 34 34 31 30 33 33 36 28 22 16 13 10 9 9 10 11
6 6 5 6 9 9 10 10 11 13 10 11 12 8 10 10 9 11 11 12 14 17 14 19 24 27 32 34 35 31 26 29 32 36 28 19 15 13 10 10 10 11 10
8 2 5 7 6 10 10 11 14 10 11 16 5 16 13 12 5 10 12 10 11 13 13 18 21 25 31 33 35 30 25 27 31 38 23 18 17 15 16 16 14 12 13
4 8 6 5 8 11 9 14 12 11 12 11 9 13 7 8 11 8 3 8 12 13 12 15 18 23 30 33 35 29 25 26 32 37 22 19 18 17 16 14 16 17 13

GFSGL_850_spd_234.txt.gz
Wind_Speed
18 12 14 13 15 14 14 15 15 16 17 17 14 12 11 13 12 15 14 16 15 14 13 12 11 9 8 8 9 11 12 12 12 12 10 13 14 12 8 9 10 10 12
14 12 12 13 13 12 12 12 16 16 17 19 16 11 11 11 12 13 15 17 16 16 15 14 14 14 12 12 11 11 10 10 9 10 8 13 9 11 12 15 16 15 14
13 9 12 15 15 14 16 18 19 19 24 26 24 21 18 17 15 15 19 22 22 19 17 17 15 15 15 14 13 12 11 10 10 11 12 12 12 14 14 17 18 18 14
13 12 15 18 18 18 18 19 22 25 24 23 23 23 23 22 21 20 21 21 23 25 21 15 14 15 15 13 11 11 10 10 11 12 13 14 14 17 17 19 20 20 18
12 12 13 14 18 19 19 19 19 20 21 21 20 19 17 17 17 12 13 18 22 25 22 19 17 17 15 13 11 11 10 14 14 15 17 14 17 17 16 19 22 19 15
10 9 13 15 16 17 18 17 17 19 21 23 23 19 15 15 16 13 10 12 18 21 24 25 23 20 17 15 14 11 13 17 17 16 12 13 15 15 17 19 20 20 21
10 15 15 15 15 14 13 12 11 12 13 17 20 21 19 14 12 13 13 13 19 18 20 22 21 21 20 18 15 14 12 20 18 17 16 15 15 16 17 19 18 17 17
13 14 15 14 15 16 13 11 9 8 8 10 13 19 22 15 13 12 10 11 12 14 17 20 20 19 20 19 14 12 12 14 15 17 17 15 16 15 14 18 16 16 13
13 15 13 11 10 11 15 14 10 8 6 8 10 19 23 17 14 10 9 10 12 14 16 17 18 16 16 17 15 12 13 13 13 15 17 18 18 16 15 16 15 13 17
12 10 9 9 10 10 8 11 13 9 8 8 11 18 19 17 13 12 12 13 11 15 14 16 17 16 16 16 17 18 11 14 16 14 20 20 21 19 15 14 16 11 13
8 5 7 11 16 13 7 7 11 11 10 10 14 16 15 16 18 18 15 15 17 17 16 17 18 17 17 19 17 15 13 18 14 20 23 22 21 22 22 15 12 9 13
11 13 14 16 16 19 20 18 17 17 14 13 13 13 13 15 15 14 13 20 18 17 18 18 18 18 18 19 18 16 18 17 19 25 27 25 28 24 23 17 10 11 11
8 8 8 9 11 12 13 16 18 20 23 19 18 16 15 14 17 16 17 19 19 18 18 19 18 18 19 21 18 17 17 20 26 28 28 28 28 24 20 16 8 6 7
5 7 4 5 7 9 10 11 12 15 20 22 17 18 16 14 18 19 16 18 22 19 17 18 20 18 18 20 19 19 19 22 23 25 27 29 32 21 17 13 14 11 7
1 3 4 5 6 8 11 9 8 11 14 19 18 14 16 16 15 16 18 17 21 21 18 22 26 28 27 26 23 21 23 27 27 24 28 29 27 19 16 12 11 11 9
2 2 3 4 3 9 11 8 6 9 12 13 19 12 13 15 11 12 13 14 18 23 23 24 28 29 27 27 26 23 26 29 27 26 24 26 23 17 15 12 10 10 10
3 3 1 5 5 6 10 8 9 9 11 10 15 15 11 11 12 14 14 15 18 22 24 25 29 29 29 29 29 27 27 26 28 26 24 21 21 16 14 12 10 10 10
2 4 4 6 9 9 7 7 11 11 11 9 10 13 8 9 12 14 15 16 17 21 23 25 28 29 31 33 32 29 27 30 32 28 23 18 17 14 13 11 10 9 9
1 3 3 6 7 7 9 7 10 12 10 8 6 9 7 9 11 13 15 16 16 19 21 24 27 29 32 35 33 30 27 32 32 31 25 20 17 12 12 11 7 8 8
2 2 4 5 3 8 12 4 8 12 13 8 5 7 8 8 10 12 14 14 15 19 19 23 27 30 34 36 36 32 30 32 33 32 27 18 15 12 9 8 8 8 7
5 4 5 7 6 7 9 10 11 13 14 10 7 11 5 9 11 15 14 14 17 20 20 22 27 30 36 37 38 34 30 32 32 33 26 18 14 11 8 8 7 5 6
8 8 11 7 8 7 10 10 10 12 11 13 9 10 3 9 12 13 13 15 16 20 21 21 25 29 36 38 38 34 32 33 31 34 22 15 13 10 9 8 8 7 8
6 8 7 7 6 8 9 9 9 13 11 9 7 5 6 13 16 9 12 15 16 18 20 20 23 28 35 37 36 34 32 34 34 25 18 15 13 10 10 10 13 9 8
8 5 5 6 8 8 14 9 11 13 8 12 4 8 11 12 8 5 15 9 12 16 17 18 22 27 34 36 35 33 30 33 29 21 18 18 15 12 12 13 11 11 11
5 4 4 5 7 8 8 10 11 4 8 7 4 15 14 7 9 18 6 6 5 10 13 15 19 26 33 35 34 32 29 31 22 20 17 17 16 15 15 17 14 12 18
9 6 4 1 2 4 6 6 8 9 10 7 8 7 8 10 11 11 9 12 17 9 6 11 17 24 31 34 33 30 28 29 22 22 22 22 21 20 18 13 13 19 16

GFSGL_850_spd_237.txt.gz
Wind_Speed
13 13 14 12 11 11 13 15 17 18 17 18 16 12 11 11 12 12 14 16 17 17 17 17 15 14 12 10 9 8 7 8 8 8 7 9 8 10 8 9 12 15 15
13 14 16 16 15 14 17 17 20 21 23 23 21 19 17 15 15 17 19 20 19 16 13 13 13 14 13 12 12 12 10 9 11 11 11 12 11 13 15 16 17 16 18
14 15 17 16 15 16 18 21 20 19 20 21 21 21 21 20 17 19 20 22 21 18 16 14 15 15 12 11 10 10 10 10 12 13 14 16 15 17 19 16 16 19 18
13 12 11 13 16 16 16 16 17 18 18 18 18 16 15 13 12 11 16 20 21 23 22 21 21 20 20 16 12 12 12 14 15 15 15 18 15 17 18 20 22 20 19
9 9 13 13 12 13 15 16 17 18 19 19 18 15 13 13 14 11 11 15 16 20 21 21 22 20 19 18 15 12 13 15 15 16 15 15 18 18 20 21 22 22 19
7 11 11 11 9 9 8 10 11 12 15 17 19 19 16 11 13 11 9 11 13 14 17 17 17 16 15 15 14 10 13 15 17 17 17 18 19 20 21 21 21 21 22
11 11 9 10 10 11 11 11 10 10 10 12 16 20 15 13 12 9 9 10 12 14 15 17 15 15 16 13 10 10 10 12 14 15 16 16 18 19 20 21 20 20 18
11 8 8 8 9 11 13 11 11 10 8 9 14 19 16 12 12 10 11 12 12 14 16 17 16 15 15 16 15 13 12 13 14 14 16 16 18 19 20 20 19 20 18
9 6 5 6 7 6 10 14 14 8 9 9 13 16 16 14 12 12 11 12 12 13 13 14 15 15 16 18 16 15 10 11 14 12 16 19 19 18 18 19 18 18 17
6 5 8 11 12 5 7 11 13 12 11 11 12 12 12 15 17 16 16 16 15 15 12 14 15 15 17 19 19 15 12 14 13 13 19 18 18 21 18 18 16 16 16
4 5 7 11 15 16 13 12 14 11 10 9 10 10 12 14 14 13 16 19 17 16 16 17 17 16 18 20 19 14 14 12 16 22 23 22 22 22 17 16 12 14 14
9 9 9 8 9 11 12 13 16 18 13 13 10 9 11 13 12 13 16 19 20 17 16 17 19 21 21 21 19 13 11 17 22 24 26 27 27 24 19 16 13 11 12
6 3 3 4 5 6 7 8 9 15 16 13 13 9 8 10 11 13 12 15 19 20 18 20 22 22 21 19 19 19 20 23 25 24 25 26 25 21 16 15 11 10 8
3 3 3 3 5 8 9 9 8 8 11 11 8 8 9 9 11 14 16 16 20 22 22 23 24 23 23 23 23 22 23 25 24 25 24 22 24 20 14 12 12 13 8
0 3 4 5 6 7 9 7 6 6 6 10 10 7 11 12 12 14 16 16 20 22 23 25 28 30 31 32 31 27 25 24 26 26 23 21 20 21 15 12 10 10 10
2 3 4 6 5 9 11 8 7 7 7 6 10 9 9 10 12 15 16 17 20 20 23 26 28 30 32 34 33 30 26 28 28 26 22 20 16 17 15 12 10 8 8
5 5 5 7 8 10 10 9 9 9 10 7 7 9 9 13 13 15 16 16 20 21 22 25 28 31 34 35 35 31 28 28 29 26 22 19 15 14 12 11 11 8 9
4 7 7 6 9 10 10 7 9 12 12 9 7 9 9 12 14 15 16 16 19 21 20 23 28 31 36 37 38 33 29 29 29 29 25 18 15 13 12 11 9 9 9
4 3 7 10 11 10 12 7 10 11 14 13 9 9 9 11 15 15 16 16 18 20 20 22 27 30 36 39 39 35 31 30 29 32 24 16 13 13 10 8 8 9 8
5 6 10 11 11 12 10 9 11 15 17 14 13 11 10 10 13 17 16 16 17 19 19 22 26 30 36 40 40 37 33 33 31 31 20 14 12 11 9 9 8 7 7
8 7 10 13 13 9 10 10 12 14 14 14 16 11 12 12 14 17 16 15 15 18 19 20 25 30 37 40 40 37 34 35 33 23 17 14 12 10 9 8 7 6 6
10 10 13 13 10 9 10 11 13 12 15 14 12 10 13 9 14 15 13 14 16 16 18 19 23 30 36 39 38 36 36 36 25 22 18 15 12 11 10 8 9 8 8
9 11 10 8 7 8 9 14 12 14 15 11 10 7 7 11 16 13 9 19 14 13 16 18 21 29 34 38 35 33 36 28 23 21 20 17 13 11 10 10 9 9 11
8 10 9 9 8 8 12 15 16 16 11 9 5 8 7 13 9 10 18 14 12 12 18 16 20 27 33 37 33 31 33 23 23 18 16 16 14 14 13 13 11 11 14
7 7 8 9 9 10 11 12 10 10 11 9 11 9 6 10 12 12 11 13 15 19 13 13 17 25 31 34 30 30 30 21 17 20 20 19 21 18 14 14 17 14 14
8 7 8 8 6 8 11 12 13 14 13 12 12 11 11 11 12 13 11 13 14 15 12 14 22 23 29 31 29 28 28 22 21 14 16 15 17 13 16 19 15 14 17

GFSGL_850_spd_240.txt.gz
Wind_Speed
12 13 14 13 13 13 15 17 18 19 20 21 19 16 14 15 17 17 17 16 14 12 12 13 13 13 12 11 11 10 9 8 10 10 11 11 12 13 13 14 17 19 20
12 13 14 13 13 14 15 15 15 18 19 20 20 20 18 16 16 19 20 20 19 18 18 16 17 16 13 12 11 10 10 11 13 15 15 16 17 16 17 18 15 17 20
10 10 10 11 13 13 13 13 14 15 16 15 15 16 15 13 13 16 17 19 22 22 22 22 22 22 20 16 12 11 11 12 14 16 16 17 17 18 19 18 20 20 17
5 7 11 11 12 12 13 15 16 17 18 18 17 14 13 14 13 12 14 12 15 17 18 18 19 19 20 19 15 11 12 13 16 16 16 16 17 19 21 24 25 22 24
5 9 9 10 9 9 11 12 12 14 16 18 19 16 14 11 12 9 11 9 11 13 14 15 16 16 14 15 15 11 13 15 16 17 18 17 20 22 23 24 25 24 23
7 8 8 7 9 9 11 11 11 12 14 16 20 18 14 13 12 8 11 12 14 15 16 16 15 15 16 16 15 15 15 16 18 19 19 20 22 22 24 25 25 25 22
9 6 6 6 8 9 11 11 11 12 13 14 17 18 12 12 10 10 12 13 14 16 17 16 17 17 18 18 17 17 17 17 18 19 20 20 24 24 26 26 23 22 22
7 4 4 5 6 7 9 12 13 9 11 12 14 15 15 13 14 13 13 14 14 16 15 17 18 19 20 22 22 21 19 14 14 18 18 19 23 24 24 25 26 25 24
5 3 4 6 5 3 7 11 12 10 10 11 13 11 13 15 15 16 17 15 14 15 16 18 19 19 20 22 24 23 16 14 15 14 15 21 22 23 24 25 23 23 22
4 5 8 12 12 10 11 13 13 11 10 10 10 9 11 13 14 14 18 19 20 21 21 21 21 22 24 25 25 20 17 14 14 19 23 24 24 27 25 20 20 20 18
4 7 7 10 12 12 13 15 16 13 13 11 7 8 11 14 14 17 18 20 22 22 21 22 23 24 25 24 22 19 17 19 23 26 27 25 27 23 18 13 14 16 16
8 6 4 5 7 8 9 10 13 14 13 12 9 7 9 12 13 16 16 18 21 21 22 24 25 23 23 23 22 20 21 23 24 24 24 25 22 23 19 14 15 13 14
6 2 2 3 5 7 8 9 8 9 11 11 9 9 10 11 13 16 18 17 19 20 22 24 25 26 26 27 26 23 23 23 25 27 27 23 20 20 18 13 12 11 11
2 2 2 4 6 8 10 9 9 9 9 10 11 11 11 12 13 15 17 18 19 19 21 25 26 28 30 32 33 27 25 23 24 27 23 19 19 15 18 13 13 11 11
1 2 4 5 6 9 11 11 9 9 10 10 10 11 12 14 13 15 17 20 19 21 21 25 29 32 38 39 39 33 29 25 27 27 23 20 18 14 15 12 11 10 9
2 3 5 6 6 11 13 10 9 10 12 12 11 11 12 12 14 14 17 19 18 21 21 24 28 32 37 41 41 37 33 28 30 27 25 19 17 14 13 12 10 9 10
3 6 7 7 9 12 14 14 10 9 14 14 13 12 12 13 15 15 16 18 18 20 21 23 27 31 37 41 41 37 35 30 31 26 24 16 15 14 11 11 9 8 10
4 7 8 8 12 14 14 15 11 13 13 14 14 14 14 15 14 17 18 17 18 19 20 22 25 30 36 41 41 38 35 35 31 26 19 14 13 13 11 10 9 10 10
4 4 6 9 12 14 15 14 14 15 17 18 16 15 15 17 15 13 20 17 17 19 21 22 24 29 36 41 41 37 36 35 27 23 18 14 13 12 10 9 9 9 8
4 5 8 11 13 15 12 13 15 17 17 18 19 17 17 17 17 13 21 20 16 18 18 21 24 29 35 40 40 37 38 29 26 24 19 15 12 11 11 10 9 8 8
6 6 8 12 14 12 11 13 16 19 17 17 18 17 16 17 13 17 18 13 16 18 19 20 25 28 35 40 38 36 36 28 23 24 20 16 13 14 11 9 8 10 9
8 6 10 13 11 10 13 14 17 19 17 19 16 15 13 14 14 21 20 13 21 18 18 19 23 25 33 37 35 35 30 29 24 21 20 18 14 11 12 11 8 10 10
6 8 11 11 12 13 13 16 18 18 18 16 13 12 12 14 17 17 14 18 18 16 18 20 20 28 31 35 31 31 28 24 22 22 21 20 16 14 12 11 11 14 11
5 9 10 10 13 14 16 15 15 14 15 14 15 14 14 13 13 16 15 13 15 18 16 16 22 26 32 32 30 30 22 26 19 19 18 19 16 13 13 14 14 12 16
4 6 8 10 12 13 12 13 15 16 17 16 13 13 13 13 12 13 13 14 14 15 15 18 22 27 30 29 29 30 24 21 21 17 15 15 14 20 17 14 16 15 14
4 6 6 7 10 12 14 16 17 16 14 13 12 12 12 12 12 12 12 12 12 12 17 18 22 28 28 26 29 28 26 22 18 15 15 14 16 15 15 16 14 15 17

GFSGL_850_spd_246.txt.gz
Wind_Speed
6 7 8 8 9 9 9 10 11 12 12 12 11 10 10 11 12 12 12 13 13 14 14 14 15 15 15 15 14 14 13 14 16 17 15 17 16 16 16 17 17 16 16
4 5 6 6 7 7 9 9 10 11 12 11 9 9 10 9 9 11 11 12 13 14 15 15 15 15 15 15 15 15 12 14 15 17 18 17 14 16 15 19 17 17 18
3 4 5 5 6 7 7 8 9 10 12 13 10 10 10 11 9 11 11 12 13 14 14 16 16 16 17 17 17 17 17 16 18 17 19 17 16 16 17 17 17 17 19
3 3 3 4 4 5 5 6 7 8 10 12 11 10 11 10 10 10 11 12 13 14 15 15 16 16 16 17 17 18 20 21 22 20 21 21 17 14 17 19 20 20 23
4 2 1 3 4 5 6 5 5 6 8 10 12 10 10 11 13 14 15 13 14 15 15 16 16 19 19 19 19 21 21 22 22 23 22 20 20 21 17 16 21 23 21
4 2 0 2 3 5 6 7 4 5 6 8 10 11 11 10 15 16 16 14 14 15 16 17 17 17 20 23 23 22 20 21 21 21 21 22 22 22 19 19 22 25 26
5 2 1 2 3 4 5 7 6 5 5 7 8 8 10 10 13 15 16 14 15 16 16 17 19 19 21 26 25 22 19 19 18 17 19 20 23 21 21 25 25 25 27
5 2 3 4 4 2 4 5 5 5 5 6 6 7 8 9 12 15 15 14 16 15 16 17 19 21 23 28 27 22 21 18 17 19 19 22 23 25 25 25 25 26 23
5 1 2 2 3 4 5 5 6 5 5 5 5 6 7 8 13 16 18 14 16 15 16 17 18 22 26 28 26 24 22 21 20 22 23 24 23 23 22 19 19 20 19
5 3 3 5 5 6 8 9 11 7 7 5 4 5 7 8 12 15 17 14 16 17 16 16 19 25 27 26 27 22 27 25 25 21 19 18 19 21 21 17 18 19 20
6 5 4 3 2 3 4 6 7 7 5 6 6 6 7 8 11 15 16 14 15 16 17 18 19 25 27 27 29 26 29 26 21 20 19 19 19 17 14 17 18 16 17
8 5 4 2 2 2 3 4 5 6 6 8 8 10 10 11 13 13 15 16 17 17 16 19 20 26 27 27 26 32 31 25 23 22 21 19 21 18 16 19 15 14 14
8 5 4 4 4 4 4 6 6 7 8 9 10 11 12 12 13 14 16 18 18 20 17 24 23 25 24 25 28 28 27 23 23 23 22 23 27 18 18 16 14 14 12
7 5 4 4 4 5 5 7 8 8 9 11 12 13 13 14 13 13 16 17 18 20 20 22 20 21 24 26 29 30 27 23 28 27 25 24 19 16 15 16 13 12 12
6 5 4 5 5 5 6 8 9 9 8 10 11 12 14 15 15 17 15 16 16 19 22 19 20 23 25 27 29 30 27 29 29 27 25 23 18 15 15 14 12 12 10
6 4 5 4 4 5 7 9 11 9 10 13 15 16 17 18 19 21 17 22 19 24 20 17 18 20 25 26 29 31 24 35 26 27 22 19 17 15 16 13 12 10 11
7 6 5 5 5 6 8 10 12 11 13 13 16 18 19 17 18 20 17 18 21 21 14 20 21 20 24 26 28 29 26 32 23 23 21 18 16 16 14 14 12 12 10
7 7 6 5 6 7 9 11 10 11 14 16 16 16 17 18 19 15 15 17 17 14 17 19 18 19 24 26 27 27 29 28 26 22 20 18 16 16 15 13 11 12 10
7 5 7 6 6 9 9 10 10 12 15 17 17 16 16 18 18 14 8 14 17 18 18 17 18 20 23 25 26 24 30 27 24 25 21 17 16 15 13 12 11 11 11
8 7 7 6 7 9 9 10 11 14 16 17 17 14 17 17 14 14 15 16 12 18 16 17 18 18 22 24 25 23 32 25 25 22 22 18 15 15 15 12 13 12 11
6 6 7 6 7 9 9 11 13 14 15 15 15 14 18 13 14 14 15 15 16 14 15 18 19 20 22 24 23 24 29 27 24 21 20 18 13 12 13 10 11 11 10
6 5 5 6 8 7 9 10 12 13 14 14 13 12 15 12 13 13 12 13 13 14 15 16 18 20 22 23 22 31 29 25 20 19 20 15 13 13 13 12 11 11 10
6 5 5 6 6 7 8 10 11 11 11 11 11 11 11 11 12 11 10 11 12 14 16 17 18 21 21 22 24 29 25 22 19 18 16 18 15 13 13 15 14 11 9
4 4 4 3 4 5 7 9 9 10 10 9 9 9 10 9 10 11 10 10 14 14 15 17 19 21 22 24 28 23 21 19 18 17 14 13 13 12 14 15 13 13 11
3 2 1 1 3 6 8 8 8 8 8 9 9 9 9 10 9 9 9 10 11 14 16 17 20 21 23 25 26 20 17 15 17 14 12 12 15 13 14 16 15 15 15
2 2 2 3 5 6 6 6 7 8 8 8 8 8 8 9 8 5 8 11 12 14 17 18 21 22 25 26 25 20 17 13 13 15 15 16 16 16 17 15 15 15 16